QPF
0.01 0.02 0.03 0.02 0.01 0.01 0.02 0.03 0.03 0.02 0.02 0.04 0.04 0.03 0.03 0.03 0.03 0.03 0.01 0.01 0.02 0.04 0.07 0.08 0.07 0.06 0.04 0.02 0.01 0.01 0.00 0.01 0.01 0.01 0.01 0.02 0.02 0.02
0.01 0.01 0.01 0.02 0.02 0.01 0.02 0.03 0.03 0.03 0.02 0.03 0.04 0.04 0.04 0.03 0.04 0.04 0.02 0.03 0.04 0.05 0.05 0.05 0.04 0.04 0.03 0.01 0.01 0.01 0.01 0.01 0.02 0.02 0.01 0.02 0.02 0.02
0.02 0.02 0.01 0.01 0.02 0.01 0.01 0.01 0.02 0.03 0.03 0.02 0.02 0.03 0.05 0.05 0.04 0.05 0.03 0.03 0.04 0.03 0.03 0.02 0.02 0.01 0.02 0.02 0.02 0.02 0.02 0.02 0.02 0.01 0.01 0.02 0.02 0.02
0.04 0.03 0.02 0.02 0.02 0.01 0.01 0.01 0.01 0.01 0.03 0.04 0.02 0.02 0.03 0.04 0.04 0.03 0.02 0.02 0.02 0.02 0.02 0.02 0.02 0.01 0.01 0.01 0.02 0.02 0.02 0.03 0.02 0.01 0.01 0.02 0.03 0.03
0.04 0.04 0.03 0.03 0.03 0.02 0.01 0.01 0.01 0.01 0.02 0.03 0.03 0.02 0.02 0.02 0.02 0.02 0.01 0.01 0.01 0.01 0.01 0.02 0.02 0.02 0.02 0.02 0.02 0.02 0.01 0.01 0.01 0.01 0.02 0.03 0.04 0.05
0.03 0.04 0.04 0.03 0.03 0.03 0.02 0.02 0.01 0.01 0.01 0.02 0.03 0.03 0.03 0.03 0.02 0.02 0.01 0.02 0.01 0.01 0.01 0.01 0.02 0.02 0.03 0.03 0.02 0.02 0.01 0.01 0.01 0.03 0.04 0.05 0.08 0.09
0.02 0.02 0.03 0.03 0.03 0.03 0.02 0.02 0.02 0.01 0.01 0.01 0.02 0.03 0.04 0.03 0.02 0.01 0.01 0.01 0.01 0.01 0.01 0.01 0.01 0.01 0.02 0.03 0.02 0.02 0.02 0.03 0.03 0.04 0.04 0.04 0.06 0.07
0.01 0.01 0.01 0.02 0.04 0.04 0.03 0.02 0.02 0.02 0.02 0.01 0.02 0.03 0.03 0.03 0.03 0.02 0.02 0.02 0.01 0.01 0.01 0.00 0.01 0.01 0.02 0.03 0.02 0.02 0.01 0.01 0.01 0.01 0.01 0.02 0.03 0.06
0.03 0.01 0.01 0.01 0.01 0.02 0.02 0.02 0.02 0.02 0.01 0.01 0.01 0.02 0.03 0.03 0.03 0.02 0.02 0.01 0.01 0.02 0.02 0.01 0.01 0.01 0.02 0.02 0.02 0.02 0.01 0.01 0.00 0.00 0.00 0.02 0.03 0.05
0.03 0.02 0.01 0.01 0.01 0.01 0.01 0.01 0.01 0.01 0.01 0.01 0.01 0.01 0.02 0.03 0.03 0.03 0.02 0.01 0.01 0.01 0.01 0.01 0.01 0.01 0.01 0.01 0.01 0.02 0.01 0.01 0.00 0.00 0.00 0.02 0.03 0.03
0.02 0.02 0.02 0.01 0.01 0.02 0.01 0.01 0.01 0.01 0.01 0.01 0.01 0.01 0.01 0.02 0.04 0.05 0.03 0.02 0.01 0.01 0.01 0.01 0.00 0.00 0.00 0.00 0.01 0.01 0.01 0.01 0.00 0.00 0.00 0.01 0.02 0.02
0.02 0.02 0.02 0.02 0.02 0.03 0.02 0.02 0.01 0.01 0.01 0.01 0.01 0.01 0.01 0.01 0.02 0.04 0.04 0.02 0.01 0.01 0.01 0.00 0.00 0.00 0.01 0.01 0.01 0.01 0.01 0.01 0.01 0.00 0.00 0.00 0.01 0.02
0.03 0.02 0.02 0.03 0.04 0.04 0.03 0.02 0.02 0.02 0.01 0.01 0.01 0.01 0.01 0.01 0.01 0.02 0.03 0.03 0.02 0.01 0.01 0.01 0.01 0.00 0.00 0.01 0.01 0.01 0.01 0.01 0.01 0.01 0.00 0.00 0.01 0.01
0.02 0.02 0.02 0.03 0.04 0.04 0.03 0.02 0.02 0.02 0.02 0.01 0.02 0.02 0.02 0.01 0.01 0.02 0.02 0.03 0.03 0.02 0.02 0.01 0.01 0.01 0.01 0.01 0.01 0.01 0.01 0.01 0.01 0.01 0.01 0.01 0.01 0.01
0.02 0.02 0.02 0.02 0.03 0.04 0.03 0.02 0.02 0.02 0.02 0.02 0.01 0.01 0.01 0.01 0.01 0.02 0.03 0.03 0.04 0.03 0.02 0.02 0.01 0.01 0.01 0.01 0.00 0.01 0.01 0.01 0.01 0.01 0.01 0.01 0.01 0.01
0.02 0.02 0.02 0.02 0.03 0.03 0.03 0.03 0.03 0.03 0.02 0.02 0.01 0.01 0.01 0.01 0.01 0.02 0.03 0.04 0.04 0.05 0.03 0.02 0.01 0.02 0.01 0.01 0.01 0.01 0.01 0.01 0.02 0.02 0.02 0.02 0.01 0.01
0.04 0.03 0.02 0.02 0.02 0.02 0.03 0.03 0.03 0.03 0.03 0.02 0.02 0.02 0.01 0.01 0.01 0.01 0.02 0.03 0.02 0.02 0.03 0.02 0.01 0.01 0.01 0.01 0.01 0.01 0.00 0.01 0.01 0.01 0.02 0.02 0.02 0.02
0.03 0.03 0.03 0.02 0.02 0.02 0.02 0.02 0.03 0.03 0.02 0.02 0.03 0.02 0.02 0.02 0.02 0.02 0.02 0.02 0.02 0.01 0.02 0.02 0.01 0.02 0.02 0.01 0.01 0.01 0.01 0.01 0.01 0.01 0.01 0.02 0.01 0.01
0.02 0.02 0.03 0.03 0.02 0.02 0.03 0.03 0.03 0.02 0.02 0.02 0.03 0.03 0.02 0.02 0.02 0.02 0.02 0.02 0.02 0.02 0.02 0.02 0.02 0.02 0.02 0.01 0.01 0.00 0.01 0.01 0.01 0.01 0.01 0.01 0.01 0.01
0.01 0.02 0.03 0.03 0.03 0.03 0.03 0.03 0.03 0.03 0.03 0.03 0.03 0.02 0.03 0.03 0.03 0.03 0.02 0.02 0.02 0.02 0.03 0.03 0.03 0.02 0.02 0.02 0.02 0.01 0.01 0.01 0.02 0.02 0.01 0.01 0.01 0.01
0.01 0.02 0.02 0.03 0.03 0.03 0.03 0.03 0.03 0.03 0.03 0.02 0.02 0.02 0.02 0.03 0.03 0.03 0.03 0.03 0.03 0.03 0.03 0.02 0.02 0.02 0.03 0.03 0.03 0.02 0.02 0.01 0.02 0.02 0.01 0.01 0.01 0.01
0.01 0.01 0.01 0.02 0.03 0.03 0.02 0.02 0.02 0.03 0.03 0.03 0.03 0.03 0.03 0.03 0.03 0.03 0.03 0.04 0.04 0.03 0.03 0.03 0.03 0.03 0.04 0.04 0.04 0.02 0.02 0.02 0.02 0.01 0.02 0.02 0.01 0.01
0.00 0.01 0.01 0.01 0.02 0.03 0.03 0.02 0.02 0.02 0.03 0.02 0.02 0.02 0.02 0.03 0.03 0.03 0.04 0.04 0.04 0.04 0.04 0.05 0.05 0.05 0.04 0.04 0.04 0.03 0.02 0.02 0.02 0.02 0.02 0.02 0.02 0.02
MSLP
1017.78 1017.87 1018.04 1018.32 1018.71 1019.20 1019.76 1020.38 1021.02 1021.64 1022.21 1022.71 1023.14 1023.47 1023.72 1023.90 1024.03 1024.13 1024.21 1024.31 1024.44 1024.60 1024.81 1025.05 1025.33 1025.62 1025.92 1026.20 1026.46 1026.69 1026.89 1027.05 1027.19 1027.31 1027.41 1027.52 1027.63 1027.75
1017.82 1017.88 1018.00 1018.23 1018.57 1019.03 1019.57 1020.19 1020.85 1021.52 1022.16 1022.75 1023.27 1023.70 1024.04 1024.31 1024.51 1024.67 1024.81 1024.95 1025.11 1025.29 1025.52 1025.77 1026.05 1026.34 1026.62 1026.88 1027.10 1027.28 1027.42 1027.53 1027.60 1027.66 1027.71 1027.76 1027.83 1027.91
1017.78 1017.83 1017.94 1018.14 1018.45 1018.88 1019.41 1020.02 1020.69 1021.39 1022.07 1022.71 1023.29 1023.79 1024.20 1024.53 1024.80 1025.02 1025.21 1025.40 1025.60 1025.83 1026.08 1026.35 1026.64 1026.93 1027.20 1027.44 1027.64 1027.79 1027.89 1027.95 1027.98 1027.99 1028.00 1028.02 1028.05 1028.09
1017.66 1017.72 1017.83 1018.03 1018.33 1018.75 1019.28 1019.89 1020.56 1021.27 1021.97 1022.64 1023.24 1023.78 1024.23 1024.61 1024.92 1025.19 1025.43 1025.66 1025.90 1026.16 1026.44 1026.73 1027.03 1027.31 1027.58 1027.81 1027.99 1028.12 1028.21 1028.25 1028.27 1028.27 1028.26 1028.26 1028.26 1028.27
1017.46 1017.55 1017.69 1017.90 1018.22 1018.65 1019.18 1019.79 1020.46 1021.16 1021.86 1022.52 1023.13 1023.67 1024.14 1024.54 1024.87 1025.17 1025.44 1025.70 1025.97 1026.25 1026.54 1026.84 1027.14 1027.42 1027.68 1027.90 1028.07 1028.20 1028.30 1028.35 1028.39 1028.41 1028.41 1028.42 1028.42 1028.42
1017.19 1017.32 1017.49 1017.74 1018.09 1018.54 1019.08 1019.69 1020.35 1021.04 1021.71 1022.35 1022.94 1023.46 1023.92 1024.31 1024.66 1024.96 1025.25 1025.53 1025.81 1026.10 1026.39 1026.68 1026.96 1027.23 1027.47 1027.68 1027.85 1027.99 1028.11 1028.20 1028.28 1028.35 1028.40 1028.43 1028.45 1028.44
1016.84 1017.01 1017.23 1017.53 1017.91 1018.38 1018.93 1019.55 1020.19 1020.85 1021.48 1022.08 1022.63 1023.12 1023.55 1023.93 1024.27 1024.59 1024.88 1025.17 1025.45 1025.74 1026.01 1026.28 1026.53 1026.77 1026.98 1027.17 1027.34 1027.49 1027.64 1027.78 1027.92 1028.04 1028.15 1028.23 1028.28 1028.29
1016.41 1016.63 1016.90 1017.24 1017.67 1018.16 1018.72 1019.32 1019.94 1020.55 1021.14 1021.69 1022.19 1022.64 1023.04 1023.41 1023.75 1024.06 1024.36 1024.66 1024.94 1025.21 1025.47 1025.70 1025.91 1026.10 1026.27 1026.43 1026.59 1026.75 1026.92 1027.11 1027.30 1027.49 1027.66 1027.80 1027.88 1027.90
1015.91 1016.18 1016.51 1016.90 1017.35 1017.86 1018.42 1019.00 1019.58 1020.15 1020.68 1021.18 1021.63 1022.03 1022.41 1022.76 1023.10 1023.43 1023.74 1024.05 1024.33 1024.59 1024.82 1025.02 1025.18 1025.32 1025.44 1025.56 1025.69 1025.85 1026.04 1026.25 1026.48 1026.72 1026.94 1027.12 1027.23 1027.27
1015.35 1015.68 1016.06 1016.49 1016.98 1017.50 1018.05 1018.60 1019.14 1019.65 1020.12 1020.56 1020.96 1021.34 1021.70 1022.05 1022.40 1022.74 1023.08 1023.40 1023.70 1023.95 1024.16 1024.32 1024.44 1024.53 1024.59 1024.67 1024.76 1024.90 1025.08 1025.30 1025.55 1025.80 1026.05 1026.24 1026.37 1026.41
1014.77 1015.16 1015.59 1016.06 1016.57 1017.10 1017.63 1018.15 1018.64 1019.09 1019.51 1019.89 1020.26 1020.61 1020.96 1021.32 1021.69 1022.06 1022.43 1022.77 1023.08 1023.34 1023.53 1023.67 1023.75 1023.79 1023.81 1023.84 1023.89 1023.99 1024.14 1024.34 1024.57 1024.82 1025.05 1025.24 1025.35 1025.38
1014.19 1014.63 1015.12 1015.63 1016.16 1016.69 1017.20 1017.68 1018.13 1018.53 1018.90 1019.25 1019.58 1019.92 1020.27 1020.64 1021.03 1021.43 1021.83 1022.20 1022.52 1022.78 1022.97 1023.09 1023.15 1023.15 1023.13 1023.12 1023.13 1023.18 1023.29 1023.45 1023.64 1023.84 1024.03 1024.18 1024.26 1024.25
1013.61 1014.12 1014.66 1015.20 1015.75 1016.28 1016.77 1017.23 1017.63 1018.00 1018.33 1018.65 1018.97 1019.30 1019.66 1020.05 1020.46 1020.88 1021.29 1021.68 1022.02 1022.28 1022.47 1022.58 1022.62 1022.61 1022.56 1022.52 1022.49 1022.50 1022.56 1022.66 1022.78 1022.92 1023.04 1023.12 1023.13 1023.08
1013.06 1013.62 1014.20 1014.77 1015.33 1015.85 1016.33 1016.77 1017.15 1017.50 1017.81 1018.12 1018.44 1018.78 1019.15 1019.55 1019.97 1020.40 1020.83 1021.22 1021.55 1021.82 1022.00 1022.11 1022.14 1022.12 1022.07 1022.00 1021.95 1021.92 1021.93 1021.96 1022.01 1022.06 1022.09 1022.09 1022.03 1021.91
1012.50 1013.09 1013.70 1014.29 1014.85 1015.37 1015.84 1016.27 1016.65 1016.99 1017.31 1017.63 1017.97 1018.32 1018.71 1019.12 1019.55 1019.99 1020.40 1020.78 1021.10 1021.35 1021.52 1021.62 1021.66 1021.64 1021.59 1021.52 1021.45 1021.39 1021.35 1021.32 1021.29 1021.26 1021.19 1021.09 1020.95 1020.77
1011.90 1012.51 1013.12 1013.71 1014.27 1014.78 1015.25 1015.67 1016.06 1016.42 1016.77 1017.13 1017.49 1017.88 1018.29 1018.72 1019.15 1019.57 1019.96 1020.32 1020.61 1020.84 1021.00 1021.09 1021.12 1021.11 1021.07 1021.00 1020.93 1020.86 1020.78 1020.69 1020.59 1020.47 1020.31 1020.12 1019.90 1019.65
1011.22 1011.82 1012.41 1012.98 1013.52 1014.03 1014.49 1014.93 1015.34 1015.73 1016.13 1016.53 1016.95 1017.38 1017.82 1018.26 1018.69 1019.10 1019.47 1019.79 1020.05 1020.24 1020.38 1020.46 1020.50 1020.49 1020.46 1020.41 1020.34 1020.26 1020.15 1020.02 1019.85 1019.66 1019.42 1019.15 1018.87 1018.57
1010.43 1011.00 1011.55 1012.09 1012.60 1013.08 1013.55 1013.99 1014.43 1014.88 1015.33 1015.79 1016.27 1016.75 1017.22 1017.68 1018.12 1018.51 1018.85 1019.14 1019.36 1019.53 1019.65 1019.72 1019.76 1019.76 1019.75 1019.71 1019.65 1019.56 1019.43 1019.27 1019.06 1018.80 1018.50 1018.18 1017.84 1017.51
1009.54 1010.05 1010.55 1011.04 1011.52 1011.98 1012.43 1012.89 1013.36 1013.85 1014.35 1014.88 1015.41 1015.94 1016.46 1016.94 1017.38 1017.77 1018.09 1018.35 1018.55 1018.70 1018.80 1018.87 1018.91 1018.92 1018.92 1018.90 1018.85 1018.76 1018.62 1018.43 1018.19 1017.89 1017.56 1017.20 1016.84 1016.50
1008.54 1009.00 1009.44 1009.88 1010.32 1010.76 1011.20 1011.67 1012.16 1012.68 1013.23 1013.81 1014.39 1014.96 1015.51 1016.01 1016.47 1016.85 1017.17 1017.42 1017.60 1017.74 1017.84 1017.91 1017.96 1017.99 1018.01 1018.00 1017.95 1017.87 1017.72 1017.52 1017.27 1016.96 1016.61 1016.24 1015.88 1015.54
1007.46 1007.87 1008.27 1008.67 1009.08 1009.50 1009.94 1010.41 1010.92 1011.46 1012.04 1012.64 1013.25 1013.84 1014.41 1014.93 1015.38 1015.77 1016.09 1016.34 1016.53 1016.68 1016.79 1016.88 1016.95 1017.00 1017.03 1017.03 1017.00 1016.92 1016.78 1016.58 1016.32 1016.01 1015.67 1015.32 1014.97 1014.66
1006.32 1006.70 1007.08 1007.47 1007.87 1008.28 1008.72 1009.20 1009.71 1010.26 1010.84 1011.44 1012.05 1012.64 1013.21 1013.72 1014.18 1014.57 1014.90 1015.16 1015.37 1015.54 1015.68 1015.79 1015.89 1015.96 1016.02 1016.04 1016.02 1015.95 1015.82 1015.63 1015.38 1015.09 1014.78 1014.45 1014.15 1013.88
1005.12 1005.50 1005.89 1006.30 1006.72 1007.15 1007.61 1008.09 1008.60 1009.15 1009.71 1010.29 1010.87 1011.44 1011.97 1012.47 1012.91 1013.30 1013.64 1013.92 1014.15 1014.36 1014.53 1014.68 1014.82 1014.92 1015.00 1015.04 1015.04 1014.98 1014.86 1014.69 1014.47 1014.22 1013.94 1013.67 1013.41 1013.19
Thickness
5652 5651 5651 5651 5652 5653 5653 5653 5650 5649 5649 5650 5649 5648 5647 5646 5644 5646 5646 5644 5643 5643 5643 5643 5643 5643 5644 5644 5644 5644 5644 5644 5644 5644 5643 5643 5643 5643
5645 5646 5647 5647 5647 5647 5647 5648 5648 5647 5645 5646 5644 5643 5643 5642 5640 5641 5641 5639 5638 5638 5637 5637 5638 5638 5638 5638 5638 5639 5639 5639 5638 5638 5638 5637 5637 5637
5642 5642 5642 5642 5642 5642 5642 5642 5643 5643 5639 5639 5639 5639 5638 5637 5636 5636 5636 5636 5635 5633 5632 5632 5632 5632 5633 5633 5633 5633 5633 5633 5633 5632 5632 5632 5631 5631
5638 5638 5638 5637 5637 5637 5636 5637 5638 5638 5636 5633 5633 5632 5632 5632 5632 5632 5631 5631 5631 5628 5627 5627 5627 5627 5627 5627 5627 5627 5627 5627 5627 5627 5626 5626 5626 5625
5634 5633 5634 5633 5632 5631 5631 5632 5632 5633 5632 5629 5627 5626 5626 5626 5626 5626 5626 5626 5626 5624 5623 5622 5622 5622 5622 5622 5622 5622 5622 5621 5621 5621 5620 5620 5620 5620
5629 5628 5628 5627 5627 5627 5626 5626 5626 5626 5625 5624 5622 5621 5620 5619 5620 5620 5621 5621 5621 5621 5620 5619 5618 5617 5617 5617 5617 5617 5616 5616 5615 5615 5615 5614 5614 5614
5623 5623 5622 5621 5620 5620 5620 5620 5619 5619 5619 5618 5617 5616 5615 5614 5614 5616 5616 5617 5617 5617 5617 5616 5615 5615 5614 5613 5613 5612 5611 5611 5610 5610 5610 5609 5609 5609
5617 5617 5616 5615 5613 5612 5612 5612 5612 5613 5613 5613 5612 5612 5612 5611 5611 5611 5611 5611 5612 5613 5612 5613 5612 5612 5612 5611 5610 5608 5607 5606 5606 5605 5605 5604 5604 5604
5611 5611 5611 5610 5609 5609 5607 5606 5605 5605 5606 5608 5608 5608 5608 5608 5607 5606 5607 5607 5608 5609 5607 5608 5608 5608 5607 5606 5605 5604 5602 5602 5601 5600 5600 5599 5599 5599
5604 5604 5604 5605 5604 5603 5603 5602 5602 5602 5601 5601 5603 5604 5603 5603 5602 5603 5603 5602 5603 5602 5601 5602 5604 5604 5603 5602 5600 5599 5598 5597 5596 5596 5595 5595 5594 5594
5597 5598 5598 5598 5596 5595 5596 5597 5597 5597 5595 5594 5594 5595 5595 5595 5595 5595 5596 5596 5597 5597 5595 5596 5598 5598 5598 5598 5597 5594 5593 5592 5592 5591 5591 5590 5590 5590
5591 5591 5589 5589 5588 5588 5590 5591 5591 5591 5591 5590 5588 5589 5589 5589 5588 5590 5591 5591 5593 5592 5591 5589 5591 5591 5592 5593 5592 5590 5588 5588 5587 5587 5586 5586 5585 5585
5584 5584 5583 5580 5580 5580 5582 5584 5584 5584 5585 5585 5585 5585 5585 5585 5584 5584 5585 5585 5586 5587 5586 5583 5584 5584 5585 5587 5586 5585 5585 5584 5583 5583 5582 5582 5581 5580
5576 5575 5575 5572 5572 5572 5573 5574 5574 5574 5577 5578 5578 5579 5579 5579 5579 5579 5579 5579 5579 5580 5579 5578 5578 5577 5578 5579 5581 5580 5579 5579 5579 5579 5578 5578 5577 5576
5567 5566 5565 5564 5563 5564 5564 5565 5566 5567 5569 5570 5572 5573 5573 5573 5573 5572 5572 5571 5571 5571 5572 5571 5571 5571 5571 5573 5575 5575 5574 5574 5573 5573 5573 5573 5573 5573
5558 5557 5556 5556 5556 5556 5557 5557 5559 5560 5561 5563 5564 5565 5566 5565 5565 5565 5565 5564 5564 5565 5564 5564 5564 5564 5564 5565 5566 5567 5568 5568 5568 5567 5567 5568 5568 5569
5548 5549 5549 5549 5549 5550 5550 5551 5551 5552 5553 5554 5556 5557 5557 5558 5558 5558 5558 5558 5559 5560 5559 5558 5557 5556 5557 5558 5559 5560 5561 5562 5562 5562 5562 5563 5564 5564
5538 5540 5541 5541 5541 5541 5541 5542 5542 5543 5544 5545 5547 5549 5550 5550 5551 5550 5550 5551 5553 5553 5553 5552 5550 5549 5550 5552 5551 5554 5555 5556 5556 5556 5556 5557 5560 5561
5529 5531 5532 5532 5532 5532 5533 5533 5534 5535 5535 5536 5538 5540 5541 5543 5543 5543 5543 5543 5544 5545 5546 5545 5544 5544 5545 5548 5550 5545 5547 5549 5550 5550 5551 5552 5554 5556
5520 5521 5522 5522 5522 5523 5524 5524 5525 5525 5526 5527 5528 5531 5533 5534 5535 5535 5536 5536 5537 5537 5538 5538 5538 5538 5540 5542 5542 5542 5539 5541 5543 5544 5545 5546 5547 5548
5511 5511 5511 5512 5513 5514 5515 5515 5516 5517 5517 5518 5519 5521 5523 5525 5526 5527 5528 5527 5528 5530 5531 5532 5532 5529 5530 5531 5533 5535 5535 5533 5535 5536 5538 5539 5541 5542
5503 5503 5503 5503 5504 5505 5506 5507 5508 5509 5509 5510 5510 5511 5514 5515 5517 5518 5519 5520 5521 5522 5523 5524 5523 5522 5521 5524 5527 5529 5529 5528 5527 5527 5528 5530 5534 5537
5496 5496 5496 5496 5497 5497 5498 5499 5499 5500 5501 5501 5502 5503 5504 5505 5507 5509 5510 5512 5513 5513 5513 5514 5514 5514 5514 5516 5518 5520 5521 5521 5521 5521 5523 5523 5524 5526